SCP
0 0 0 0 0 0 0 0 0 0 0 0 0 0 0 0 0 0 0 0 0 0 0 0 0 0 0 0 0 0 0 0 0 0 0 0 0 0
0 0 0 0 0 0 0 0 0 0 0 0 0 0 0 0 0 0 0 0 0 0 0 0 0 0 0 0 0 0 0 0 0 0 0 0 0 0
0 0 0 0 0 0 0 0 0 0 0 0 0 0 0 0 0 0 0 0 0 0 0 0 0 0 0 0 0 0 0 0 0 0 0 0 0 0
0 0 0 0 0 0 0 0 0 0 0 0 0 0 0 0 0 0 0 0 0 0 0 0 0 0 0 0 0 0 0 0 0 0 0 0 0 0
0 0 0 0 0 0 0 0 0 0 0 0 0 0 0 0 0 0 0 0 0 0 0 0 0 0 0 0 0 0 0 0 0 0 0 0 0 0
0 0 0 0 0 0 0 0 0 0 0 0 0 0 0 0 0 0 0 0 0 0 0 0 0 0 0 0 0 0 0 0 0 0 0 0 0 0
0 0 0 0 0 0 0 0 0 0 0 0 0 0 0 0 0 0 0 0 0 0 0 0 0 0 0 0 0 0 0 0 0 0 0 0 0 0
0 0 0 0 0 0 0 0 0 0 0 0 0 0 0 0 0 0 0 0 0 0 0 0 0 0 0 0 0 0 0 0 0 0 0 0 0 0
0 0 0 0 0 0 0 0 0 0 0 0 0 0 0 0 0 0 0 0 0 0 0 0 0 0 0 0 0 0 0 0 0 0 0 0 0 0
0 0 0 0 0 0 0 0 0 0 0 0 0 0 0 0 0 0 0 0 0 0 0 0 0 0 0 0 0 0 0 0 0 0 0 0 0 0
0 0 0 0 0 0 0 0 0 0 0 0 0 0 0 0 0 0 0 0 0 0 0 0 0 0 0 0 0 0 0 0 0 0 0 0 0 0
0 0 0 0 0 0 0 0 0 0 0 0 0 0 0 0 0 0 0 0 0 0 0 0 0 0 0 0 0 0 0 0 0 0 0 0 0 0
0 0 0 0 0 0 0 0 0 0 0 0 0 0 0 0 0 0 0 0 0 0 0 0 0 0 0 0 0 0 0 0 0 0 0 0 0 0
0 0 0 0 0 0 0 0 0 0 0 0 0 0 0 0 0 0 0 0 0 0 0 0 0 0 0 0 0 0 0 0 0 0 0 0 0 0
0 0 0 0 0 0 0 0 0 0 0 0 0 0 0 0 0 0 0 0 0 0 0 0 0 0 0 0 0 0 0 0 0 0 0 0 0 0
0 0 0 0 0 0 0 0 0 0 0 0 0 0 0 0 0 0 0 0 0 0 0 0 0 0 0 0 0 0 0 0 0 0 0 0 0 0
0 0 0 0 0 0 0 0 0 0 0 0 0 0 0 0 0 0 0 0 0 0 0 0 0 0 0 0 0 0 0 0 0 0 0 0 0 0
0 0 0 0 0 0 0 0 0 0 0 0 0 0 0 0 0 0 0 0 0 0 0 0 0 0 0 0 0 0 0 0 0 0 0 0 0 0
0 0 0 0 0 0 0 0 0 0 0 0 0 0 0 0 0 0 0 0 0 0 0 0 0 0 0 0 0 0 0 0 0 0 0 0 0 0
0 0 0 0 0 0 0 0 0 0 0 0 0 0 0 0 0 0 0 0 0 0 0 0 0 0 0 0 0 0 0 0 0 0 0 0 0 0
0 0 0 0 0 0 0 0 0 0 0 0 0 0 0 0 0 0 0 0 0 0 0 0 0 0 0 0 0 0 0 0 0 0 0 0 0 0
0 0 0 0 0 0 0 0 0 0 0 0 0 0 0 0 0 0 0 0 0 0 0 0 0 0 0 0 0 0 0 0 0 0 0 0 0 0
0 0 0 0 0 0 0 0 0 0 0 0 0 0 0 0 0 0 0 0 0 0 0 0 0 0 0 0 0 0 0 0 0 0 0 0 0 0
Wind_Speed
7 7 5 4 4 3 3 4 4 2 3 3 2 1 1 1 3 2 3 7 9 10 11 11 11 13 14 15 16 16 17 17 18 18 19 19 20 20
6 7 6 4 4 3 3 3 3 4 3 3 2 1 1 1 3 2 3 7 9 10 11 11 11 12 13 14 15 16 16 17 17 18 18 19 19 20
7 8 8 6 5 4 3 3 3 3 4 3 1 1 1 2 2 2 2 3 4 9 10 11 11 12 13 13 14 15 16 16 17 17 18 19 19 20
10 9 8 6 7 5 4 4 4 4 4 4 2 1 2 2 2 3 3 3 3 8 10 11 11 12 12 13 13 14 14 15 15 16 17 19 20 20
11 10 9 9 8 6 6 5 4 3 3 3 2 1 1 1 2 3 3 3 4 6 8 10 11 12 12 12 13 13 13 14 15 16 17 18 19 20
9 10 9 10 10 8 6 6 5 4 3 2 2 1 1 1 1 2 3 2 4 3 5 7 9 11 12 12 13 13 13 14 15 16 17 18 19 20
8 8 9 10 11 9 6 6 6 4 3 2 2 1 1 1 1 1 2 3 3 2 4 4 4 4 5 9 11 13 13 14 15 16 17 18 19 19
9 8 7 9 10 11 10 10 9 7 5 4 3 3 3 2 1 1 1 3 3 2 3 4 2 4 4 4 10 13 12 13 15 16 17 18 19 19
9 8 6 6 8 6 7 8 7 6 7 5 4 4 3 3 2 1 1 2 3 3 2 4 2 4 4 6 11 11 12 14 15 16 17 18 19 19
8 9 8 8 8 8 7 5 4 3 4 3 3 3 2 2 2 2 1 1 2 2 1 3 3 4 6 5 8 10 13 14 15 16 17 18 18 18
7 8 8 8 11 13 9 7 5 2 3 4 4 4 4 4 3 2 2 2 2 2 1 2 3 5 4 3 5 11 14 14 15 16 17 18 18 17
6 6 10 10 13 14 9 8 7 4 4 4 4 4 4 3 4 2 2 1 1 2 1 2 2 4 5 3 3 5 6 11 15 16 16 17 18 10
7 5 6 13 13 13 10 6 7 7 5 4 3 2 2 2 1 1 1 1 1 2 2 1 2 2 3 5 5 4 4 5 6 8 12 17 18 13
7 6 7 14 13 12 8 9 11 9 5 4 3 2 1 0 1 1 1 1 1 3 3 2 2 2 3 5 6 5 5 5 4 5 6 13 14 16
7 11 13 15 13 9 10 12 9 5 4 3 2 1 1 1 1 1 2 2 3 2 2 2 3 3 3 5 5 5 5 5 4 5 6 7 7 7
9 12 15 14 9 9 9 6 4 4 4 3 2 1 1 1 1 1 1 2 2 3 3 3 3 4 4 5 5 6 5 5 6 7 8 8 7 6
11 7 6 6 5 4 4 4 3 3 3 2 3 2 1 1 1 1 1 1 1 2 4 4 4 5 6 5 4 5 5 6 6 7 8 9 7 6
12 8 7 6 6 6 5 4 3 3 3 3 3 2 2 1 0 1 1 1 2 2 3 3 5 5 4 3 6 5 5 5 6 7 6 7 9 7
8 7 7 7 6 6 5 4 3 3 3 3 3 2 2 1 1 1 1 2 2 2 3 2 2 3 4 6 6 4 4 6 7 7 6 6 8 10
5 7 7 6 6 6 5 5 4 4 3 3 3 2 2 1 1 0 1 1 2 3 3 3 2 2 3 4 5 6 8 7 6 7 7 7 7 10
6 6 6 6 6 6 5 5 5 4 4 3 3 2 2 2 1 0 1 3 2 2 3 4 4 7 3 2 4 6 6 9 9 7 7 7 6 5
7 7 6 6 6 6 6 5 5 4 4 3 3 2 2 2 1 1 1 1 2 2 3 4 4 3 1 2 5 7 7 8 10 12 9 7 4 5
7 7 7 7 6 6 5 6 6 4 4 4 3 3 2 1 1 1 1 1 1 2 3 3 4 2 2 2 4 5 8 9 6 7 6 10 12 12
Wind_Direction
191 189 188 185 178 176 163 162 169 224 270 264 267 283 275 255 292 280 277 293 301 302 304 307 310 314 316 319 320 320 320 320 320 320 320 320 322 325
182 181 189 181 178 177 175 173 173 183 231 251 241 267 300 310 299 281 274 300 300 303 305 309 313 316 318 318 319 321 322 323 323 323 323 323 324 325
183 186 192 180 179 182 174 170 180 175 217 259 236 255 266 292 311 302 289 287 299 304 307 310 314 318 320 320 321 321 324 324 325 325 326 326 326 326
187 186 190 180 187 182 179 186 192 191 199 239 243 238 249 276 299 302 310 307 295 302 309 314 317 320 321 321 322 325 327 328 329 330 329 329 328 327
186 188 188 181 190 187 184 190 193 189 192 209 239 226 259 296 315 305 306 302 310 310 313 316 317 321 323 324 326 330 330 329 329 330 330 329 329 328
186 188 186 186 191 188 188 193 180 176 176 192 222 231 251 287 297 302 313 315 313 314 315 317 317 323 325 326 328 329 329 328 328 329 329 330 330 328
182 185 187 186 187 184 182 182 173 176 174 184 205 213 239 274 271 269 294 319 304 301 316 310 312 312 319 323 325 326 326 328 329 331 331 331 329 326
180 182 180 183 186 185 181 175 172 175 181 178 196 215 232 230 228 273 308 337 307 311 318 300 304 301 305 301 317 325 328 332 333 332 331 330 327 327
178 175 171 177 175 173 173 167 172 173 169 170 185 206 210 211 191 212 237 259 267 297 323 289 302 304 308 312 319 325 331 334 334 332 330 329 328 327
174 172 171 172 172 162 153 151 156 166 171 165 174 190 188 175 175 180 212 285 291 304 347 287 304 305 311 308 314 327 334 334 333 331 331 331 329 327
165 166 166 168 166 157 151 151 146 141 122 123 112 102 97 96 98 86 54 19 319 302 356 307 305 312 303 296 311 325 330 330 331 332 332 332 329 330
154 162 166 164 162 159 158 157 161 164 140 119 93 74 74 77 80 106 148 112 321 292 311 324 309 330 315 298 300 311 320 323 329 331 332 332 331 330
160 164 166 162 160 161 158 161 163 147 137 129 114 91 72 67 55 40 104 157 193 254 273 328 304 310 287 301 304 301 305 312 318 319 327 329 330 330
162 159 156 156 155 152 150 147 139 128 122 121 117 112 100 60 360 8 1 338 243 241 251 245 252 272 293 296 295 306 312 302 304 309 313 322 325 326
148 149 145 144 141 141 141 138 133 127 129 131 141 156 156 139 69 31 12 359 345 310 280 266 258 273 268 270 286 295 309 307 311 314 314 315 311 312
130 132 130 129 124 126 128 125 122 134 137 143 142 128 109 100 81 41 6 353 353 332 320 305 284 276 274 267 267 281 286 292 309 315 314 309 303 296
131 120 121 128 129 122 117 116 116 119 119 122 126 123 114 90 45 27 32 14 352 314 319 324 316 294 265 255 273 275 288 295 299 313 318 314 306 298
133 139 145 147 150 148 145 136 131 134 132 129 129 131 135 130 63 12 16 5 324 307 307 315 333 339 336 294 236 269 288 294 307 312 311 310 307 307
135 147 152 154 151 149 149 148 149 145 138 136 136 138 136 131 100 14 351 340 325 315 308 311 333 350 342 325 306 274 288 307 311 312 305 300 297 302
143 149 152 151 149 150 150 147 142 139 137 139 141 142 140 139 124 347 319 318 319 319 317 317 318 320 302 295 297 294 297 299 305 307 305 302 288 289
145 144 145 146 146 147 148 147 147 149 148 148 151 152 150 141 154 267 304 328 341 316 311 306 298 317 302 291 295 295 296 304 308 302 303 309 309 311
144 143 142 143 145 146 146 145 145 147 149 151 156 157 156 159 176 211 279 303 303 298 296 300 312 327 339 301 303 304 306 313 318 318 307 296 306 314
146 143 142 145 145 143 145 148 150 154 158 160 160 160 158 160 174 199 254 290 310 319 325 325 331 332 307 284 296 302 309 318 320 326 318 321 319 304